EW8570 Weather Reports


time (UTC)temp
C
wind
direction
speed
KPH
gust
KPH
rain 1hr
cm
rain 24hr
cm
rain mn
cm
humidity
%
barometer
mb
20260504120234 3 263 0.0 3.2 0.00 0.00 0.00 87 1015.5
20260504110651 2 113 0.0 3.2 0.00 0.00 0.00 86 1015.5
20260504100413 2 57 0.0 4.8 0.00 0.00 0.00 85 1015.3
20260504081710 2 43 0.0 1.6 0.00 0.00 0.00 84 1015.3
20260504081157 2 43 0.0 1.6 0.00 0.00 0.00 84 1015.4
20260504081105 2 43 0.0 0.0 0.00 0.00 0.00 84 1015.4
20260504080714 2 43 0.0 0.0 0.00 0.00 0.00 84 1015.4
20260504070133 2 43 0.0 0.0 0.00 0.00 0.00 83 1015.3
20260504060127 3 43 0.0 0.0 0.00 0.00 0.00 81 1015.3
20260504050629 5 43 0.0 0.0 0.00 0.00 0.00 79 1015.5
20260504050122 5 43 0.0 0.0 0.00 0.00 0.00 79 1015.5
20260504045624 5 43 0.0 0.0 0.00 0.00 0.00 80 1015.5
20260504045111 5 43 0.0 0.0 0.00 0.00 0.00 80 1015.5
20260504044605 5 43 0.0 0.0 0.00 0.00 0.00 80 1015.6
20260504044101 5 43 0.0 0.0 0.00 0.00 0.00 80 1015.5
20260504043847 5 43 0.0 0.0 0.00 0.00 0.00 79 1015.4
20260504043620 5 43 0.0 0.0 0.00 0.00 0.00 79 1015.5
20260504042541 5 43 0.0 0.0 0.00 0.00 0.00 79 1015.4
20260504042435 5 43 0.0 1.6 0.00 0.00 0.00 79 1015.4
20260504042106 5 43 0.0 1.6 0.00 0.00 0.00 79 1015.4
20260504041037 5 12 0.0 0.0 0.00 0.00 0.00 78 1015.4
20260504040521 5 12 0.0 0.0 0.00 0.00 0.00 77 1015.4
20260504040011 6 12 0.0 0.0 0.00 0.00 0.00 77 1015.5
20260504035513 6 12 0.0 0.0 0.00 0.00 0.00 76 1015.5
20260504035002 6 12 0.0 0.0 0.00 0.00 0.00 76 1015.6
20260504034451 6 12 0.0 0.0 0.00 0.00 0.00 75 1015.5
20260504033948 6 12 0.0 1.6 0.00 0.00 0.00 75 1015.5
20260504033447 6 11 0.0 1.6 0.00 0.00 0.00 75 1015.4
20260504032959 6 11 0.0 0.0 0.00 0.00 0.00 75 1015.4
20260504032501 6 11 0.0 0.0 0.00 0.00 0.00 74 1015.4
20260504031952 6 11 0.0 0.0 0.00 0.00 0.00 74 1015.4
20260504031443 7 11 0.0 0.0 0.00 0.00 0.00 73 1015.5
20260504030928 7 11 0.0 0.0 0.00 0.00 0.00 74 1015.5
20260504030410 7 11 0.0 0.0 0.00 0.00 0.00 74 1015.5
20260504025907 7 11 0.0 0.0 0.00 0.00 0.00 72 1015.6
20260504025359 7 11 0.0 0.0 0.00 0.00 0.00 70 1015.6
20260504024901 8 11 0.0 0.0 0.00 0.00 0.00 68 1015.6
20260504024405 8 11 0.0 0.0 0.00 0.00 0.00 67 1015.6
20260504023840 8 11 0.0 1.6 0.00 0.00 0.00 68 1015.5
20260504023335 8 11 0.0 3.2 0.00 0.00 0.00 66 1015.4
20260504022915 9 29 1.6 3.2 0.00 0.00 0.00 65 1015.2
20260504022832 8 11 0.0 3.2 0.00 0.00 0.00 65 1015.3
20260504022812 10 5 1.6 6.4 0.00 0.00 0.00 61 1015.0
20260504022350 9 29 0.0 1.6 0.00 0.00 0.00 66 1015.3
20260504021754 11 349 0.0 0.0 0.00 0.00 0.00 57 1014.8
20260504021735 11 349 0.0 0.0 0.00 0.00 0.00 57 1014.8
20260504021332 9 29 1.6 3.2 0.00 0.00 0.00 62 1015.2
20260504020846 10 5 0.0 3.2 0.00 0.00 0.00 62 1015.3
20260504020357 10 5 0.0 0.0 0.00 0.00 0.00 61 1015.3
20260504015918 10 5 0.0 1.6 0.00 0.00 0.00 61 1015.2
20260504014854 10 5 1.6 6.4 0.00 0.00 0.00 59 1014.9
20260504013224 11 349 0.0 0.0 0.00 0.00 0.00 56 1014.6
20260504012727 11 349 0.0 0.0 0.00 0.00 0.00 56 1014.6
20260504012211 11 349 0.0 0.0 0.00 0.00 0.00 54 1014.6
20260504011836 13 346 1.6 3.2 0.00 0.00 0.00 47 1014.2
20260504011707 12 349 0.0 0.0 0.00 0.00 0.00 53 1014.6
20260504011236 12 349 0.0 0.0 0.00 0.00 0.00 51 1014.4
20260504010758 12 349 0.0 0.0 0.00 0.00 0.00 50 1014.3
20260504010156 12 349 0.0 0.0 0.00 0.00 0.00 51 1014.4
20260504005717 12 349 0.0 3.2 0.00 0.00 0.00 50 1014.3
20260504004842 15 133 0.0 1.6 0.00 0.00 0.00 41 1014.0
20260504004806 15 133 0.0 0.0 0.00 0.00 0.00 40 1014.0
20260504004633 13 346 0.0 3.2 0.00 0.00 0.00 47 1014.2
20260504004141 14 215 0.0 1.6 0.00 0.00 0.00 44 1014.1
20260504003659 14 215 0.0 3.2 0.00 0.00 0.00 44 1014.1
20260504003227 14 215 1.6 3.2 0.00 0.00 0.00 44 1014.1
20260504002144 15 133 0.0 1.6 0.00 0.00 0.00 40 1014.1
20260504001109 15 133 0.0 0.0 0.00 0.00 0.00 38 1014.0
20260504000600 16 133 0.0 3.2 0.00 0.00 0.00 39 1013.9
20260504000112 16 133 0.0 3.2 0.00 0.00 0.00 39 1014.0
20260503235557 16 133 1.6 4.8 0.00 0.00 0.00 40 1013.9
20260503235057 16 148 3.2 11.3 0.00 0.00 0.00 38 1013.7
20260503234557 16 175 1.6 11.3 0.00 0.00 0.00 37 1013.7
20260503234053 16 160 0.0 8.0 0.00 0.00 0.00 34 1013.7
20260503233557 16 169 0.0 1.6 0.00 0.00 0.00 34 1013.6
20260503233053 16 169 0.0 6.4 0.00 0.00 0.00 33 1013.5
20260503232557 16 169 0.0 6.4 0.00 0.00 0.00 34 1013.5
20260503232101 17 184 0.0 1.6 0.00 0.00 0.00 33 1013.5
20260503231558 17 184 0.0 3.2 0.00 0.00 0.00 33 1013.5
20260503231056 17 184 1.6 3.2 0.00 0.00 0.00 33 1013.5
20260503230557 17 177 1.6 8.0 0.00 0.00 0.00 32 1013.5
20260503230533 18 222 1.6 6.4 0.00 0.00 0.00 32 1013.5
20260503230115 17 177 3.2 8.0 0.00 0.00 0.00 32 1013.5
20260503225636 17 157 3.2 8.0 0.00 0.00 0.00 33 1013.5
20260503224550 17 172 1.6 6.4 0.00 0.00 0.00 32 1013.6
20260503224054 18 177 1.6 6.4 0.00 0.00 0.00 33 1013.6
20260503223751 19 206 1.6 8.0 0.00 0.00 0.00 32 1013.6
20260503223553 18 166 1.6 6.4 0.00 0.00 0.00 30 1013.6
20260503223112 18 175 1.6 6.4 0.00 0.00 0.00 29 1013.6
20260503222631 18 173 3.2 6.4 0.00 0.00 0.00 32 1013.5
20260503222139 18 180 3.2 8.0 0.00 0.00 0.00 31 1013.6
20260503221554 19 187 3.2 8.0 0.00 0.00 0.00 29 1013.6
20260503221119 19 198 3.2 6.4 0.00 0.00 0.00 29 1013.6
20260503220643 19 202 1.6 6.4 0.00 0.00 0.00 29 1013.6
20260503215550 19 171 3.2 8.0 0.00 0.00 0.00 29 1013.7
20260503215052 20 147 3.2 9.7 0.00 0.00 0.00 27 1013.7
20260503214605 20 201 3.2 9.7 0.00 0.00 0.00 28 1013.9
20260503214049 20 197 3.2 9.7 0.00 0.00 0.00 33 1014.0
20260503213546 20 252 3.2 11.3 0.00 0.00 0.00 30 1014.0
20260503213457 20 238 4.8 14.5 0.00 0.00 0.00 30 1014.1
20260503213056 20 234 3.2 11.3 0.00 0.00 0.00 31 1014.1
20260503212613 20 237 4.8 12.9 0.00 0.00 0.00 28 1014.1
20260503212128 20 228 4.8 12.9 0.00 0.00 0.00 27 1014.1
20260503211038 20 246 3.2 14.5 0.00 0.00 0.00 28 1014.2
20260503210541 19 307 3.2 9.7 0.00 0.00 0.00 29 1014.3
20260503210036 19 231 4.8 16.1 0.00 0.00 0.00 29 1014.4
20260503205536 19 246 4.8 16.1 0.00 0.00 0.00 29 1014.4
20260503205031 19 45 4.8 12.9 0.00 0.00 0.00 28 1014.4
20260503204537 19 329 6.4 19.3 0.00 0.00 0.00 31 1014.5
20260503204037 19 310 6.4 19.3 0.00 0.00 0.00 28 1014.5
20260503203537 19 322 3.2 11.3 0.00 0.00 0.00 31 1014.6
20260503203336 18 40 4.8 12.9 0.00 0.00 0.00 32 1015.1
20260503203034 18 242 3.2 11.3 0.00 0.00 0.00 29 1014.5
20260503203021 19 32 3.2 12.9 0.00 0.00 0.00 30 1015.2
20260503202549 19 292 3.2 11.3 0.00 0.00 0.00 33 1014.7
20260503202058 18 162 4.8 20.9 0.00 0.00 0.00 30 1014.7
20260503201609 18 319 4.8 20.9 0.00 0.00 0.00 29 1014.8
20260503201130 18 306 4.8 16.1 0.00 0.00 0.00 32 1014.9
20260503200633 18 0 4.8 16.1 0.00 0.00 0.00 30 1014.9
20260503200138 18 309 4.8 14.5 0.00 0.00 0.00 32 1015.1
20260503194656 19 299 4.8 14.5 0.00 0.00 0.00 25 1015.4
20260503194509 19 244 4.8 19.3 0.00 0.00 0.00 30 1015.2
20260503194024 19 290 6.4 19.3 0.00 0.00 0.00 31 1015.3
20260503193528 19 286 4.8 11.3 0.00 0.00 0.00 31 1015.3
20260503192443 19 306 3.2 14.5 0.00 0.00 0.00 31 1015.5
20260503191934 19 304 3.2 14.5 0.00 0.00 0.00 31 1015.6
20260503191921 18 299 4.8 19.3 0.00 0.00 0.00 28 1015.9
20260503191813 18 247 4.8 12.9 0.00 0.00 0.00 34 1016.0
20260503191438 19 287 4.8 14.5 0.00 0.00 0.00 34 1015.7
20260503190953 18 309 4.8 12.9 0.00 0.00 0.00 27 1015.7
20260503190508 18 302 4.8 19.3 0.00 0.00 0.00 30 1015.8
20260503185446 18 177 4.8 12.9 0.00 0.00 0.00 35 1015.9
20260503184410 17 271 3.2 11.3 0.00 0.00 0.00 37 1016.0
20260503183906 17 307 4.8 14.5 0.00 0.00 0.00 34 1016.1
20260503183413 16 140 6.4 17.7 0.00 0.00 0.00 28 1016.1
20260503182908 17 348 6.4 17.7 0.00 0.00 0.00 28 1016.3
20260503182613 16 311 3.2 11.3 0.00 0.00 0.00 31 1016.8
20260503182512 17 341 3.2 11.3 0.00 0.00 0.00 30 1017.0
20260503182410 17 344 6.4 19.3 0.00 0.00 0.00 33 1016.4
20260503182305 17 259 3.2 11.3 0.00 0.00 0.00 37 1017.1
20260503181922 17 324 6.4 19.3 0.00 0.00 0.00 31 1016.5
20260503181436 17 311 4.8 14.5 0.00 0.00 0.00 30 1016.5
20260503180958 17 327 4.8 14.5 0.00 0.00 0.00 31 1016.7
20260503180516 16 304 6.4 16.1 0.00 0.00 0.00 35 1016.8
20260503180038 16 351 4.8 20.9 0.00 0.00 0.00 31 1016.8
20260503175555 16 339 3.2 20.9 0.00 0.00 0.00 32 1016.8
20260503173404 16 202 3.2 12.9 0.00 0.00 0.00 38 1017.0
20260503172859 16 176 4.8 12.9 0.00 0.00 0.00 41 1017.1
20260503172350 16 268 4.8 14.5 0.00 0.00 0.00 34 1017.3
20260503171853 16 350 3.2 14.5 0.00 0.00 0.00 37 1017.3
20260503171342 16 298 4.8 11.3 0.00 0.00 0.00 34 1017.4
20260503170833 15 297 4.8 16.1 0.00 0.00 0.00 38 1017.5
20260503170545 15 237 4.8 16.1 0.00 0.00 0.00 38 1017.7
20260503170338 15 208 4.8 16.1 0.00 0.00 0.00 38 1017.5
20260503150806 12 275 4.8 22.5 0.00 0.00 0.00 40 1018.7
20260503150259 12 224 6.4 17.7 0.00 0.00 0.00 46 1018.7
20260503131124 7 273 6.4 16.1 0.00 0.00 0.00 62 1018.5
20260503130754 7 5 8.0 17.7 0.00 0.00 0.00 57 1018.5